| time (UTC) | temp C | wind direction | speed KPH | gust KPH | rain 1hr cm | rain 24hr cm | rain mn cm | humidity % | barometer mb |
| 20260504041529 | 9 | 163 | 0.0 | 0.0 | 0.00 | 0.00 | 0.00 | 79 | 1015.2 |
| 20260504040027 | 10 | 360 | 0.0 | 0.0 | 0.00 | 0.00 | 0.00 | 77 | 1015.4 |
| 20260504034539 | 10 | 360 | 0.0 | 0.0 | 0.00 | 0.00 | 0.00 | 76 | 1015.5 |
| 20260504033026 | 11 | 360 | 0.0 | 0.0 | 0.00 | 0.00 | 0.00 | 74 | 1015.5 |
| 20260504031526 | 11 | 163 | 0.0 | 0.0 | 0.00 | 0.00 | 0.00 | 72 | 1015.7 |
| 20260504030039 | 11 | 162 | 0.0 | 0.0 | 0.00 | 0.00 | 0.00 | 70 | 1015.7 |
| 20260504024524 | 12 | 161 | 0.0 | 0.0 | 0.00 | 0.00 | 0.00 | 68 | 1015.5 |
| 20260504023025 | 12 | 161 | 0.0 | 0.0 | 0.00 | 0.00 | 0.00 | 67 | 1015.3 |
| 20260504021522 | 11 | 161 | 0.0 | 0.0 | 0.00 | 0.00 | 0.00 | 68 | 1015.0 |
| 20260504020022 | 11 | 360 | 0.0 | 0.0 | 0.00 | 0.00 | 0.00 | 71 | 1015.0 |
| 20260504014534 | 11 | 163 | 0.0 | 0.0 | 0.00 | 0.00 | 0.00 | 69 | 1015.0 |
| 20260504013021 | 11 | 360 | 0.0 | 0.0 | 0.00 | 0.00 | 0.00 | 69 | 1015.0 |
| 20260504011521 | 12 | 360 | 0.0 | 0.0 | 0.00 | 0.00 | 0.00 | 66 | 1014.7 |
| 20260504010022 | 12 | 360 | 0.0 | 0.0 | 0.00 | 0.00 | 0.00 | 63 | 1014.8 |
| 20260504004519 | 13 | 163 | 0.0 | 0.0 | 0.00 | 0.00 | 0.00 | 61 | 1014.9 |
| 20260504003027 | 14 | 360 | 0.0 | 0.0 | 0.00 | 0.00 | 0.00 | 57 | 1014.9 |
| 20260504001517 | 15 | 162 | 0.0 | 0.0 | 0.00 | 0.00 | 0.00 | 53 | 1015.1 |
| 20260504000018 | 16 | 162 | 0.0 | 0.0 | 0.00 | 0.00 | 0.00 | 48 | 1015.2 |
| 20260503234529 | 17 | 165 | 0.0 | 0.0 | 0.00 | 0.00 | 0.00 | 46 | 1014.9 |
| 20260503233015 | 17 | 146 | 0.0 | 1.6 | 0.00 | 0.00 | 0.00 | 45 | 1015.0 |
| 20260503231513 | 17 | 165 | 0.0 | 0.0 | 0.00 | 0.00 | 0.00 | 46 | 1015.3 |
| 20260503230009 | 17 | 165 | 0.0 | 1.6 | 0.00 | 0.00 | 0.00 | 42 | 1015.6 |
| 20260503224508 | 18 | 207 | 0.0 | 1.6 | 0.00 | 0.00 | 0.00 | 42 | 1015.8 |
| 20260503223007 | 18 | 248 | 0.0 | 1.6 | 0.00 | 0.00 | 0.00 | 43 | 1015.9 |
| 20260503221505 | 18 | 138 | 0.0 | 1.6 | 0.00 | 0.00 | 0.00 | 41 | 1015.9 |
| 20260503220005 | 18 | 197 | 0.0 | 1.6 | 0.00 | 0.00 | 0.00 | 44 | 1016.0 |
| 20260503214505 | 18 | 197 | 0.0 | 8.0 | 0.00 | 0.00 | 0.00 | 43 | 1016.2 |
| 20260503213002 | 18 | 211 | 0.0 | 8.0 | 0.00 | 0.00 | 0.00 | 45 | 1016.2 |
| 20260503211600 | 18 | 196 | 0.0 | 0.0 | 0.00 | 0.00 | 0.00 | 43 | 1016.4 |
| 20260503210109 | 18 | 148 | 0.0 | 3.2 | 0.00 | 0.00 | 0.00 | 43 | 1016.7 |
| 20260503204608 | 18 | 137 | 1.6 | 11.3 | 0.00 | 0.00 | 0.00 | 41 | 1016.8 |
| 20260503203059 | 18 | 196 | 0.0 | 1.6 | 0.00 | 0.00 | 0.00 | 41 | 1017.1 |
| 20260503201552 | 17 | 193 | 0.0 | 6.4 | 0.00 | 0.00 | 0.00 | 43 | 1017.3 |
| 20260503200054 | 17 | 191 | 0.0 | 3.2 | 0.00 | 0.00 | 0.00 | 41 | 1017.6 |
| 20260503194547 | 17 | 165 | 0.0 | 1.6 | 0.00 | 0.00 | 0.00 | 41 | 1018.0 |
| 20260503193051 | 17 | 225 | 0.0 | 4.8 | 0.00 | 0.00 | 0.00 | 41 | 1018.1 |
| 20260503191543 | 17 | 207 | 0.0 | 0.0 | 0.00 | 0.00 | 0.00 | 37 | 1018.5 |
| 20260503190041 | 16 | 183 | 0.0 | 0.0 | 0.00 | 0.00 | 0.00 | 40 | 1018.7 |
| 20260503184551 | 16 | 169 | 0.0 | 12.9 | 0.00 | 0.00 | 0.00 | 42 | 1018.8 |
| 20260503183055 | 16 | 241 | 0.0 | 0.0 | 0.00 | 0.00 | 0.00 | 44 | 1018.8 |
| 20260503181535 | 16 | 157 | 0.0 | 1.6 | 0.00 | 0.00 | 0.00 | 44 | 1019.0 |
| 20260503180041 | 16 | 174 | 0.0 | 1.6 | 0.00 | 0.00 | 0.00 | 42 | 1019.0 |
| 20260503174535 | 16 | 177 | 0.0 | 0.0 | 0.00 | 0.00 | 0.00 | 46 | 1019.2 |
| 20260503173042 | 15 | 205 | 0.0 | 1.6 | 0.00 | 0.00 | 0.00 | 47 | 1019.4 |
| 20260503171527 | 15 | 231 | 0.0 | 0.0 | 0.00 | 0.00 | 0.00 | 47 | 1019.6 |
| 20260503081503 | 5 | 360 | 0.0 | 0.0 | 0.00 | 0.00 | 0.00 | 96 | 1018.2 |
| 20260503071618 | 5 | 360 | 0.0 | 0.0 | 0.00 | 0.00 | 0.00 | 95 | 1018.2 |
| 20260503070109 | 5 | 360 | 0.0 | 0.0 | 0.00 | 0.00 | 0.00 | 96 | 1018.0 |
| 20260503054550 | 5 | 360 | 0.0 | 0.0 | 0.00 | 0.00 | 0.00 | 95 | 1017.8 |
| 20260503053049 | 5 | 360 | 0.0 | 0.0 | 0.00 | 0.00 | 0.00 | 95 | 1017.9 |
| 20260503051550 | 5 | 360 | 0.0 | 0.0 | 0.00 | 0.00 | 0.00 | 94 | 1017.8 |
| 20260503050046 | 5 | 360 | 0.0 | 0.0 | 0.00 | 0.00 | 0.00 | 94 | 1017.7 |
| 20260503044544 | 5 | 360 | 0.0 | 0.0 | 0.00 | 0.00 | 0.00 | 93 | 1017.5 |
| 20260503043042 | 6 | 360 | 0.0 | 0.0 | 0.00 | 0.00 | 0.00 | 93 | 1017.4 |